• In Uzbekistan
  • List of Countries
  • For 7 days
  • Water Temperature
  • Satellite Maps
  • Weather Map
  • Weather Widgets
  • user-avatar
    Login

    Hourly Weather Stepanakert

    Today, 24 June, Sunday

    Time Temperature Precipitation Wind Pressure Humidity
    00:00 +21°C° 0 mm 2 mps 691 mmHg 48%
    01:00 +20°C° 0 mm 2 mps 691 mmHg 49%
    02:00 +20°C° 0 mm 2 mps 691 mmHg 50%
    03:00 +20°C° 0 mm 2 mps 690 mmHg 51%
    04:00 +20°C° 0 mm 2 mps 691 mmHg 51%
    05:00 +21°C° 0 mm 2 mps 691 mmHg 51%
    06:00 +23°C° 0 mm 2 mps 692 mmHg 51%
    07:00 +25°C° 0 mm 2 mps 692 mmHg 47%
    08:00 +26°C° 0 mm 2 mps 692 mmHg 43%
    09:00 +28°C° 0 mm 2 mps 692 mmHg 39%
    10:00 +29°C° 0 mm 3 mps 692 mmHg 37%
    11:00 +30°C° 0 mm 3 mps 692 mmHg 36%
    12:00 +31°C° 0 mm 3 mps 692 mmHg 34%
    13:00 +31°C° 0 mm 3 mps 692 mmHg 34%
    14:00 +33°C° 0 mm 3 mps 692 mmHg 34%
    15:00 +33°C° 0 mm 3 mps 691 mmHg 34%
    16:00 +33°C° 0 mm 3 mps 691 mmHg 36%
    17:00 +31°C° 0 mm 3 mps 691 mmHg 38%
    18:00 +30°C° 0 mm 2 mps 691 mmHg 40%
    19:00 +28°C° 0 mm 2 mps 692 mmHg 44%
    20:00 +26°C° 0 mm 2 mps 692 mmHg 48%
    21:00 +24°C° 0 mm 2 mps 692 mmHg 52%
    22:00 +24°C° 0 mm 2 mps 692 mmHg 53%
    23:00 +23°C° 0 mm 2 mps 692 mmHg 55%

    Tomorrow, 25 June, Monday

    Time Temperature Precipitation Wind Pressure Humidity
    00:00 +23°C° 0 mm 2 mps 692 mmHg 56%
    01:00 +21°C° 0 mm 2 mps 692 mmHg 56%
    02:00 +21°C° 0 mm 2 mps 692 mmHg 56%
    03:00 +20°C° 0 mm 2 mps 692 mmHg 57%
    04:00 +21°C° 0 mm 2 mps 693 mmHg 54%
    05:00 +23°C° 0 mm 2 mps 693 mmHg 52%
    06:00 +23°C° 0 mm 2 mps 693 mmHg 49%
    07:00 +25°C° 0 mm 2 mps 694 mmHg 44%
    08:00 +27°C° 0 mm 2 mps 694 mmHg 39%
    09:00 +29°C° 0 mm 2 mps 694 mmHg 33%
    10:00 +30°C° 0 mm 2 mps 694 mmHg 32%
    11:00 +31°C° 0 mm 3 mps 694 mmHg 31%
    12:00 +33°C° 0 mm 3 mps 694 mmHg 30%
    13:00 +33°C° 0 mm 3 mps 693 mmHg 30%
    14:00 +33°C° 0 mm 4 mps 693 mmHg 30%
    15:00 +34°C° 0 mm 4 mps 693 mmHg 31%
    16:00 +33°C° 0 mm 4 mps 693 mmHg 33%
    17:00 +31°C° 0 mm 3 mps 692 mmHg 35%
    18:00 +31°C° 0 mm 3 mps 692 mmHg 38%
    19:00 +29°C° 0 mm 3 mps 692 mmHg 41%
    20:00 +27°C° 0 mm 2 mps 692 mmHg 45%
    21:00 +24°C° 0 mm 2 mps 692 mmHg 48%
    22:00 +24°C° 0 mm 2 mps 692 mmHg 49%
    23:00 +23°C° 0 mm 2 mps 692 mmHg 50%

    Day after tomorrow, 26 June, Tuesday

    Time Temperature Precipitation Wind Pressure Humidity
    00:00 +23°C° 0 mm 2 mps 692 mmHg 50%
    01:00 +23°C° 0 mm 2 mps 692 mmHg 48%
    02:00 +21°C° 0 mm 2 mps 692 mmHg 47%
    03:00 +21°C° 0 mm 2 mps 692 mmHg 45%
    04:00 +23°C° 0 mm 2 mps 692 mmHg 44%
    05:00 +23°C° 0 mm 2 mps 692 mmHg 42%
    06:00 +24°C° 0 mm 2 mps 692 mmHg 41%
    07:00 +26°C° 0 mm 2 mps 692 mmHg 37%
    08:00 +28°C° 0 mm 2 mps 692 mmHg 33%
    09:00 +30°C° 0 mm 2 mps 693 mmHg 29%
    10:00 +31°C° 0 mm 2 mps 692 mmHg 28%
    11:00 +32°C° 0 mm 2 mps 692 mmHg 27%
    12:00 +34°C° 0 mm 3 mps 692 mmHg 26%
    13:00 +34°C° 0 mm 3 mps 692 mmHg 26%
    14:00 +34°C° 0 mm 3 mps 691 mmHg 26%
    15:00 +35°C° 0 mm 3 mps 691 mmHg 26%
    16:00 +34°C° 0 mm 3 mps 691 mmHg 29%
    17:00 +34°C° 0 mm 2 mps 691 mmHg 31%
    18:00 +32°C° 0 mm 2 mps 691 mmHg 34%
    19:00 +30°C° 0 mm 2 mps 691 mmHg 38%
    20:00 +27°C° 0 mm 2 mps 691 mmHg 41%
    21:00 +25°C° 0 mm 2 mps 691 mmHg 45%
    22:00 +25°C° 0 mm 2 mps 691 mmHg 46%
    23:00 +24°C° 0 mm 2 mps 691 mmHg 47%

    27 June, Wednesday

    Time Temperature Precipitation Wind Pressure Humidity
    00:00 +24°C° 0 mm 2 mps 691 mmHg 48%
    01:00 +23°C° 0 mm 2 mps 691 mmHg 47%
    02:00 +23°C° 0 mm 2 mps 690 mmHg 47%
    03:00 +23°C° 0 mm 2 mps 690 mmHg 47%
    04:00 +23°C° 0 mm 2 mps 691 mmHg 46%
    05:00 +24°C° 0 mm 2 mps 691 mmHg 46%
    06:00 +25°C° 0 mm 2 mps 691 mmHg 45%
    07:00 +27°C° 0 mm 2 mps 691 mmHg 41%
    08:00 +28°C° 0 mm 2 mps 691 mmHg 36%
    09:00 +30°C° 0 mm 2 mps 692 mmHg 32%
    10:00 +31°C° 0 mm 2 mps 691 mmHg 30%
    11:00 +32°C° 0 mm 2 mps 691 mmHg 29%
    12:00 +35°C° 0 mm 3 mps 691 mmHg 27%
    13:00 +35°C° 0 mm 3 mps 691 mmHg 27%
    14:00 +35°C° 0 mm 3 mps 691 mmHg 27%
    15:00 +36°C° 0 mm 3 mps 690 mmHg 27%
    16:00 +35°C° 0 mm 3 mps 690 mmHg 29%
    17:00 +34°C° 0 mm 2 mps 690 mmHg 31%
    18:00 +34°C° 0 mm 2 mps 690 mmHg 33%
    19:00 +31°C° 0 mm 2 mps 690 mmHg 37%
    20:00 +29°C° 0 mm 2 mps 691 mmHg 40%
    21:00 +26°C° 0 mm 2 mps 691 mmHg 44%
    22:00 +26°C° 0 mm 2 mps 691 mmHg 45%
    23:00 +25°C° 0 mm 2 mps 691 mmHg 46%

    28 June, Thursday

    Time Temperature Precipitation Wind Pressure Humidity
    00:00 +24°C° 0 mm 2 mps 691 mmHg 47%
    01:00 +24°C° 0 mm 2 mps 691 mmHg 47%
    02:00 +24°C° 0 mm 2 mps 691 mmHg 47%
    03:00 +23°C° 0 mm 2 mps 691 mmHg 47%
    04:00 +24°C° 0 mm 2 mps 691 mmHg 46%
    05:00 +25°C° 0 mm 2 mps 692 mmHg 45%
    06:00 +25°C° 0 mm 2 mps 692 mmHg 44%
    07:00 +27°C° 0 mm 2 mps 692 mmHg 39%
    08:00 +29°C° 0 mm 2 mps 693 mmHg 33%
    09:00 +31°C° 0 mm 2 mps 693 mmHg 28%
    10:00 +32°C° 0 mm 2 mps 693 mmHg 27%
    11:00 +34°C° 0 mm 3 mps 693 mmHg 26%
    12:00 +35°C° 0 mm 3 mps 693 mmHg 25%
    13:00 +35°C° 0 mm 3 mps 693 mmHg 25%
    14:00 +36°C° 0 mm 3 mps 692 mmHg 25%
    15:00 +36°C° 0 mm 4 mps 692 mmHg 25%
    16:00 +35°C° 0 mm 4 mps 692 mmHg 26%
    17:00 +35°C° 0 mm 4 mps 692 mmHg 28%
    18:00 +34°C° 0 mm 3 mps 692 mmHg 30%
    19:00 +31°C° 0 mm 3 mps 692 mmHg 32%
    20:00 +28°C° 0 mm 3 mps 692 mmHg 35%
    21:00 +26°C° 0 mm 2 mps 692 mmHg 38%
    22:00 +25°C° 0 mm 2 mps 692 mmHg 38%
    23:00 +25°C° 0 mm 2 mps 692 mmHg 39%

    29 June, Friday

    Time Temperature Precipitation Wind Pressure Humidity
    00:00 +24°C° 0 mm 2 mps 692 mmHg 39%
    01:00 +24°C° 0 mm 2 mps 692 mmHg 38%
    02:00 +23°C° 0 mm 2 mps 692 mmHg 37%
    03:00 +23°C° 0 mm 2 mps 692 mmHg 37%
    04:00 +24°C° 0 mm 2 mps 692 mmHg 37%
    05:00 +24°C° 0 mm 2 mps 692 mmHg 37%
    06:00 +25°C° 0 mm 2 mps 692 mmHg 37%
    07:00 +27°C° 0 mm 2 mps 692 mmHg 34%
    08:00 +29°C° 0 mm 2 mps 693 mmHg 31%
    09:00 +31°C° 0 mm 2 mps 693 mmHg 28%
    10:00 +32°C° 0 mm 2 mps 693 mmHg 26%
    11:00 +34°C° 0 mm 2 mps 692 mmHg 25%
    12:00 +35°C° 0 mm 3 mps 692 mmHg 24%
    13:00 +36°C° 0 mm 3 mps 692 mmHg 24%
    14:00 +36°C° 0 mm 3 mps 691 mmHg 24%
    15:00 +37°C° 0 mm 3 mps 691 mmHg 24%
    16:00 +36°C° 0 mm 3 mps 691 mmHg 26%
    17:00 +35°C° 0 mm 3 mps 691 mmHg 28%
    18:00 +35°C° 0 mm 2 mps 691 mmHg 30%
    19:00 +31°C° 0 mm 2 mps 691 mmHg 32%
    20:00 +29°C° 0 mm 2 mps 691 mmHg 35%
    21:00 +27°C° 0 mm 2 mps 691 mmHg 38%
    22:00 +26°C° 0 mm 2 mps 691 mmHg 39%
    23:00 +25°C° 0 mm 2 mps 691 mmHg 40%
    Show more